Current Version              Previous Version:    01  02  03  04  05  06  07  08  09  10  11  12  13  14  15  16  17  18  19  20  21  22  23  24  25  26  27  28  29  30  
   31  32  33  34  35  36  37  38  39  40  41  42  43  44  45  46  47  48  49  50  51  52  53  54  55  56  57  58  59  60  

[Printable]
424
ASUS44 KLUB 160010
RWRTX
WEST TEXAS WEATHER ROUNDUP
NATIONAL WEATHER SERVICE LUBBOCK TX
700 PM CDT TUE APR 15 2014

NOTE: "FAIR" INDICATES FEW OR NO CLOUDS BELOW 12,000 FEET WITH NO
SIGNIFICANT WEATHER AND/OR OBSTRUCTIONS TO VISIBILITY.

TXZ004-006>008-010-012-014-016-OKZ002-160100-
TEXAS PANHANDLE/OKLAHOMA PANHANDLE

CITY           SKY/WX    TMP DP  RH WIND       PRES   REMARKS
AMARILLO       SUNNY     65   5   9 S25G36    29.92F
BORGER         SUNNY     68   7   9 S18G33    29.88F
CANADIAN       MOSUNNY   67   8  10 S23       29.91F
DALHART        MOSUNNY   68  13  12 S20G28    29.85F
DUMAS          SUNNY     67  14  13 S17G29    29.86F
GUYMON         MOSUNNY   68  14  12 S20G29    29.81F
HEREFORD       SUNNY     66   6   9 S24G33    29.93F
PAMPA          MOSUNNY   63   8  11 SW22G32   29.92F
PERRYTON       MOSUNNY   66  15  13 S20       29.87F
$$

TXZ026-029-035-045-048-160100-
SOUTHERN PANHANDLE/SOUTH PLAINS/ROLLING PLAINS

CITY           SKY/WX    TMP DP  RH WIND       PRES   REMARKS
CHILDRESS      SUNNY     67   9  10 SW21      30.00F
SEMINOLE       SUNNY     65   9  11 S15       30.02F
LUBBOCK        MOSUNNY   64   5   9 S23       29.98F
PLAINVIEW      SUNNY     63   5  10 SW20G26   29.96F
SNYDER         SUNNY     64   1   8 S14G21    30.05F
$$

TXZ052-054-060>062-072-078-127-140-154-169-160100-
PERMIAN BASIN/CONCHO VALLEY/BIG COUNTRY/EDWARDS PLATEAU

CITY           SKY/WX    TMP DP  RH WIND       PRES   REMARKS
ABILENE        SUNNY     63  11  13 S10       30.08F
BIG SPRING     SUNNY     66  11  11 S16       30.06F
BRADY            N/A     64  12  13 SE6       30.10F
BROWNWOOD      SUNNY     63  18  17 SW9       30.11F
JUNCTION       SUNNY     67  11  11 S7        30.09F
MIDLAND        SUNNY     66  10  11 S15       30.03F
ODESSA         SUNNY     66   4   8 S13       30.04F
SAN ANGELO     SUNNY     67  11  11 S12       30.07F
SONORA         SUNNY     64  18  16 S9        30.09F
SWEETWATER     SUNNY     65   8  11 S13       30.09F
WINK           SUNNY     70   2   7 SE10      29.98F
$$

TXZ055-058-074-075-080-082-160100-
FAR WEST/SOUTHWEST MOUNTAINS/TRANS PECOS

CITY           SKY/WX    TMP DP  RH WIND       PRES   REMARKS
ALPINE         SUNNY     67   4   8 S13       30.10F
DRYDEN           N/A     69   9   9 E15       30.04F
EL PASO        PTSUNNY   70   3   7 SE8       29.96F
FORT STOCKTON  SUNNY     68   7   9 SE16      30.02F
GUADALUPE PASS SUNNY     65   3   8 SW13G21   30.06F
MARFA          SUNNY     64   9  11 S16       30.09F
PECOS          SUNNY     73  13  10 E10       29.97F
PRESIDIO       FAIR      74  16  11 E6        29.97F
$$

TXZ014-016-019-021>030-083-160100
TEXAS TECH WEST TEXAS MESONET/TEXAS PANHANDLE/NORTHERN SOUTH PLAINS

CITY           SKY/WX    TMP DP  RH WIND       PRES   REMARKS
ABERNATHY 5ENE   N/A     62   6  10 S22       29.98F
AMARILLO 9NNE    N/A     66  10  11 S25       29.88F
AMARILLO 7SSE    N/A     64   9  11 S21       29.92F
AMHERST 1NE      N/A     63   4   9 S22       29.96F
BOOTLEG 11WNW    N/A     62   8  12 S24       29.92F
CANADIAN 6E      N/A     66  14  13 S21       29.90F
CAPROCK CYN SP   N/A     65   7  10 S21       29.97F
CHILDRESS 2NNE   N/A     65  11  12 S16       29.99F
CLARENDON 2WSW   N/A     64   8  11 S17       29.95F
CLAUDE 12SW      N/A     64   7  10 S15       29.93F
DIMMITT 2NE      N/A     63   7  10 S26       29.94S
FLOYDADA 2NNE    N/A     62   3   9 S21       29.99F
FRIONA 2NE       N/A     64   5  10 S23       29.93S
GOODLETT 3W      N/A     66  12  12 S16       30.00F
HART 3N          N/A     62   7  11 S26       29.95F
HEREFORD 2NW     N/A     65   7  10 S18G29    29.91F
MCLEAN 1E        N/A     63  10  12 S22       29.94F
MEMPHIS 1NE      N/A     66   8  10 S15       29.97F
MULESHOE 2SSW    N/A     65   3   8 S21G30    29.94F
OLTON 6S         N/A     62   7  11 S23       29.96F
PALO DURO SP     N/A     65   9  11 S21       29.94F
PAMPA 2E         N/A     63   8  12 S21       29.92F
PLAINVIEW 1S     N/A     63   8  11 S20       29.96F
TULIA 2ENE       N/A     63   9  11 S23       29.95F
TURKEY 2WSW      N/A     66   8  10 S18       29.97S
UMBARGER 3NNE    N/A     64   8  11 S26       29.92F
$$

TXZ033>036-039>041-045>048-160100
TEXAS TECH WEST TEXAS MESONET/SOUTH PLAINS

CITY           SKY/WX    TMP DP  RH WIND       PRES   REMARKS
AIKEN 3WSW       N/A     63   9  12 S20       29.98F
ANDREWS 2NE      N/A     65   4   9 S15       30.02F
ANTON 6SSW       N/A     63   6  10 S24       29.97F
BROWNFIELD 2S    N/A     63   6  10 S21       30.00F
DENVR CTY 7WNW   N/A     63   5  10 S16       30.00F
GAIL 2ESE        N/A     65   9  11 S13       30.02F
LAMESA 2SE       N/A     62  13  14 S16       30.03F
LEVELLAND 4S     N/A     63   3   9 S21       29.98F
LUBBOCK 3WNW     N/A     64   3   9 S18       29.99F
MORTON 1ENE      N/A     63   5  10 S25       29.96F
ODONNELL 1N      N/A     63   6  10 S18G28    30.01F
PLAINS 3N        N/A     63   4   9 S22       29.98F
RALLS 1SE        N/A     63   6  10 S20       30.01F
REESE CENTER     N/A     63   4   9 S23       29.98F
SEAGRAVES 1SW    N/A     64   7  10 S17       30.00F
SEMINOLE 2NNE    N/A     64   7  10 S16       30.01F
SLATON 2NE       N/A     63   6  10 S23       30.00F
SNYDER 3E        N/A     65  10  11 S13       30.04F
SUNDOWN 8SW      N/A     63   6  10 S20       29.98F
TAHOKA 3NNE      N/A     63   5   9 S18       30.00F
WOLFFORTH 6SSW   N/A     64   2   8 S22       30.00F
$$

TXZ031-032-036>038-042>044-160100-
TEXAS TECH WEST TEXAS MESONET/ROLLING PLAINS

CITY           SKY/WX    TMP DP  RH WIND       PRES   REMARKS
ASPERMONT 3NE    N/A     68   7   9 S14       30.03F
FLUVANNA 3WNW    N/A     64   8  11 S18       30.03F
GRAHAM 5SSW      N/A     63   7  11 S20       30.01F
GUTHRIE 10WSW    N/A     66   9  11 S15       30.01F
HASKELL 1NW      N/A     65  13  13 S13       30.03F
JAYTON 1SSE      N/A     66  10  11 S15       30.02F
KNOX CITY 3NW    N/A     67  11  11 S15       30.03F
LK A HENRY 1NW   N/A     66  10  11 S14       30.01F
NORTHFIELD 1S    N/A     66  10  11 S15       29.99F
ODELL 4ENE       N/A     64  12  13 S15       30.03F
PADUCAH 10SW     N/A     65   9  11 S14       30.01S
POST 1NE         N/A     65   8  11 S15       30.01F
RRING SPRGS 3N   N/A     64  10  12 S16       30.00F
SEYMOUR 3NW      N/A     65  12  12 S12       30.05F
SPUR 1W          N/A     65   8  10 S18       30.00F
WEINERT 2NNE     N/A     65  12  12 S14       30.04F
WHITE RVR 6NE    N/A     64   5   9 S20       30.00F
$$

TXZ052-054-060>062-072-078-127-140-154-169-160100-
TEXAS TECH WEST TEXAS MESONET/PERMIAN BASIN/
CONCHO VALLEY/BIG COUNTRY/EDWARDS PLATEAU

CITY           SKY/WX    TMP DP  RH WIND       PRES   REMARKS
COYANOSA 2N      N/A     73   4   7 SE17      29.99F
JUNCTION 1SSW    N/A     68  13  12 S9        30.09F
MERTZON 3NNE     N/A     65  14  13 S7        30.08F
SAN ANGELO 7NW   N/A     67   7   9 S8        30.07F
STRLNG CT 4WSW   N/A     65  13  13 S13       30.06F
ST LAWRNCE 5SW   N/A     64   9  11 S14       30.05F
WALL 1E          N/A     67  13  12 S8        30.08F
$$

TXZ055-058-074-075-080-082-160100-
TEXAS TECH WEST TEXAS MESONET/FAR WEST/SOUTHWEST MOUNTAINS/TRANS PECOS

CITY           SKY/WX    TMP DP  RH WIND       PRES   REMARKS
PRSMN GAP BBNP   N/A     71  14  11 NE9       30.01F
GUADLPE MTN NP   N/A     59   4  11 SW6       30.06F
$$